TimeEET,TemperatureF,Dew PointF,Humidity,Sea Level PressureIn,VisibilityMPH,Wind Direction,Wind SpeedMPH,Gust SpeedMPH,PrecipitationIn,Events,Conditions,WindDirDegrees,DateUTC
12:00 AM,68.0,53.6,60,29.80,-9999.0,South,2.3,-,N/A,,Clear,180,2013-03-21 22:00:00
1:00 AM,68.0,44.6,43,29.80,-9999.0,South,2.3,-,N/A,,Clear,170,2013-03-21 23:00:00
2:00 AM,69,40,23,29.78,6,Calm,Calm,,,,Partly Cloudy,,2013-03-22 00:00:00
2:00 AM,68.0,39.2,35,29.77,-9999.0,Calm,Calm,-,N/A,,Clear,0,2013-03-22 00:00:00
3:00 AM,68.0,41.0,37,29.74,-9999.0,Calm,Calm,-,N/A,,Clear,0,2013-03-22 01:00:00
4:00 AM,64.4,41.0,42,29.74,-9999.0,Calm,Calm,-,N/A,,Clear,0,2013-03-22 02:00:00
5:00 AM,62.6,41.0,45,29.74,-9999.0,WSW,1.2,-,N/A,,Clear,250,2013-03-22 03:00:00
6:00 AM,60.8,37.4,42,29.74,-9999.0,SW,2.3,-,N/A,,Clear,230,2013-03-22 04:00:00
7:00 AM,68.0,46.4,46,29.77,-9999.0,South,2.3,-,N/A,,Clear,180,2013-03-22 05:00:00
8:00 AM,71,49,35,29.78,6,Calm,Calm,,,,Partly Cloudy,,2013-03-22 06:00:00
8:00 AM,69.8,50.0,49,29.77,-9999.0,Calm,Calm,-,N/A,,Clear,0,2013-03-22 06:00:00
9:00 AM,80.6,55.4,42,29.74,-9999.0,SSE,5.8,-,N/A,,Clear,160,2013-03-22 07:00:00
10:00 AM,86.0,57.2,37,29.74,-9999.0,SE,12.7,-,N/A,,Clear,130,2013-03-22 08:00:00
11:00 AM,87.8,59.0,38,29.74,-9999.0,SE,12.7,-,N/A,,Clear,140,2013-03-22 09:00:00
12:00 PM,89.6,62.6,40,29.71,-9999.0,SE,12.7,-,N/A,,Clear,130,2013-03-22 10:00:00
1:00 PM,89.6,60.8,38,29.68,-9999.0,SE,12.7,-,N/A,,Clear,140,2013-03-22 11:00:00
2:00 PM,92,60,25,29.70,6,ESE,9.2,,,,Clear,120,2013-03-22 12:00:00
2:00 PM,91.4,60.8,36,29.68,-9999.0,ESE,9.2,-,N/A,,Clear,120,2013-03-22 12:00:00
3:00 PM,93.2,48.2,21,29.71,2.5,East,13.8,-,N/A,,Sand,80,2013-03-22 13:00:00
4:00 PM,87.8,53.6,31,29.71,2.5,NNE,16.1,-,N/A,,Sand,20,2013-03-22 14:00:00
5:00 PM,84.2,51.8,33,29.71,0.6,North,20.7,-,N/A,,Sand,360,2013-03-22 15:00:00
6:00 PM,82.4,46.4,28,29.74,0.6,NNW,25.3,-,N/A,,Sand,330,2013-03-22 16:00:00
7:00 PM,78.8,46.4,32,29.77,0.3,NNW,26.5,-,N/A,,Sandstorm,340,2013-03-22 17:00:00
8:00 PM,78,49,25,29.81,0,North,28.8,,,,Light Sandstorm,350,2013-03-22 18:00:00
8:00 PM,77.0,48.2,36,29.80,0.3,North,28.8,-,N/A,,Sandstorm,350,2013-03-22 18:00:00
9:00 PM,77.0,51.8,41,29.83,0.3,North,28.8,-,N/A,,Sandstorm,350,2013-03-22 19:00:00
10:00 PM,75.2,50.0,41,29.83,0.3,NNW,23.0,-,N/A,,Sandstorm,340,2013-03-22 20:00:00
11:00 PM,75.2,48.2,38,29.83,0.6,NNW,20.7,-,N/A,,Sand,340,2013-03-22 21:00:00